SCP
0 0 0 0 0 0 0 0 0 0 0 0 0 0 0 0 0 0 0 0 0 0 0 0 0 0 0 0 0 0 0 0 0 0 0 0 0 0 0 0 0 0 0 0
0 0 0 0 0 0 0 0 0 0 0 0 0 0 0 -0 0 0 0 0 0 0 0 0 0 0 0 0 0 0 0 0 0 0 0 0 0 0 0 0 0 0 0 0
0 0 0 0 0 0 0 0 0 0 0 0 0 0 0 0 0 0 0 0 0 0 0 0 0 -0 0 0 0 0 0 0 0 0 0 0 0 0 0 0 0 0 0 0
0 0 0 0 0 0 0 0 0 0 0 0 0 0 0 0 0 0 0 0 0 0 0 0 0 0 0 0 0 0 0 0 0 0 0 0 0 0 0 0 0 0 0 0
0 0 0 0 0 0 0 0 0 0 0 0 0 0 0 0 0 0 -0 -0 0 0 0 0 0 0 0 0 0 0 0 0 0 0 0 0 0 0 0 0 0 0 0 0
0 0 0 0 0 0 0 0 0 0 0 0 0 0 0 0 0 -0 -0 -0 0 0 0 0 0 0 0 0 0 0 0 0 0 0 0 0 0 0 0 0 0 0 0 0
0 0 0 0 0 0 0 0 0 0 0 0 0 0 0 0 0 0 0 0 0 0 0 0 0 0 0 0 0 0 0 0 0 0 0 0 0 0 0 0 0 0 0 0
0 0 0 0 0 0 0 0 0 0 0 0 0 0 0 0 0 0 0 0 0 0 0 0 0 0 0 0 0 0 0 0 0 0 0 0 0 0 0 0 0 0 0 0
0 0 0 0 0 0 0 0 0 0 0 0 0 0 0 0 0 0 0 0 0 0 0 0 0 0 0 0 0 0 0 0 0 0 0 0 0 0 0 0 0 0 0 0
0 0 0 0 0 0 0 0 0 0 0 0 0 0 0 0 0 0 0 0 0 0 0 0 0 0 0 0 0 0 0 0 0 0 0 0 0 0 0 0 0 0 0 0
0 0 0 0 0 0 0 0 0 0 0 0 0 0 0 0 0 0 0 0 0 0 0 0 0 0 0 0 0 0 0 0 0 0 0 0 0 0 0 0 0 0 0 0
0 0 0 -0 -0 0 0 0 0 0 0 0 0 0 0 0 0 0 0 0 0 0 0 0 0 0 0 0 0 0 0 0 0 0 0 0 0 0 0 0 0 0 0 0
0 -0 -0 -0 -0 -0 0 0 0 0 0 0 0 0 0 0 0 0 0 0 0 0 0 0 0 0 0 0 0 0 0 0 0 0 0 0 0 0 0 0 0 0 0 0
0 -0 0 0 0 0 0 0 0 0 0 0 0 0 0 0 0 0 0 0 0 0 0 0 0 0 0 0 0 0 0 0 0 0 0 0 0 0 0 0 0 0 0 0
0 0 0 0 0 0 0 0 0 0 0 0 0 0 0 0 0 0 0 0 0 0 0 0 0 0 0 0 0 0 0 0 0 0 0 0 0 0 0 0 0 0 0 0
0 0 0 0 0 0 0 0 0 0 0 0 0 0 0 0 0 0 0 0 0 0 0 0 0 0 0 0 0 0 0 0 0 0 0 0 0 0 0 0 0 0 0 0
0 0 0 0 0 0 0 0 0 0 0 0 0 0 0 0 0 0 0 0 0 0 0 0 0 0 0 0 0 0 0 0 0 0 0 0 0 0 0 0 0 0 0 0
0 0 0 0 0 0 0 0 0 0 0 0 0 0 0 0 0 0 0 0 0 0 0 0 0 0 0 0 0 0 0 0 0 0 0 0 0 0 0 0 0 0 0 0
0 0 0 -0 0 0 0 0 0 0 0 0 0 0 0 0 0 0 0 0 0 0 0 0 0 0 0 0 0 0 0 0 0 0 0 0 0 0 0 0 0 0 0 0
0 0 0 0 0 0 0 0 0 -0 -0 -0 0 0 0 0 0 0 0 0 0 0 0 0 0 0 0 0 0 0 0 0 0 0 0 0 0 0 0 0 0 0 0 0
0 0 0 0 0 0 0 0 0 0 0 0 0 0 0 0 0 0 0 0 0 0 0 0 0 0 0 0 0 0 0 0 0 0 0 0 0 0 0 0 0 0 0 0
0 0 0 0 0 0 0 0 0 0 0 0 0 0 0 0 0 0 0 0 0 0 0 0 0 0 0 0 0 0 0 0 0 0 0 0 0 0 0 0 0 0 0 0
0 0 0 0 0 0 0 0 0 0 0 0 0 0 0 0 0 0 0 0 0 0 0 0 0 0 0 0 0 0 0 0 0 0 0 0 0 0 0 0 0 0 0 0
0 0 0 0 0 0 0 0 0 0 0 0 0 0 0 0 0 0 0 0 0 0 0 0 0 0 0 0 0 0 0 0 0 0 0 0 0 0 0 0 0 0 0 0
0 0 0 0 0 0 0 0 0 0 0 0 0 0 0 0 0 0 0 0 0 0 0 0 0 0 0 0 0 0 0 0 0 0 0 0 0 0 0 0 0 0 0 0
0 0 0 0 0 0 0 0 0 0 0 0 0 0 0 0 0 0 0 0 0 0 0 0 0 0 0 0 0 0 0 0 0 0 0 0 0 0 0 0 0 0 0 0
0 0 0 0 0 0 0 0 0 0 0 0 0 0 0 0 0 0 0 0 0 0 0 0 0 0 0 0 0 0 0 0 0 0 0 0 0 0 0 0 0 0 0 0
Wind_Speed
10 9 8 8 10 11 11 10 7 7 7 5 3 2 2 3 4 5 5 5 4 4 3 4 4 5 5 4 5 5 5 5 4 4 4 4 4 3 3 3 4 3 3 3
9 9 8 9 11 14 14 13 11 9 8 2 2 1 1 2 3 3 3 4 4 4 4 4 4 5 5 4 4 5 5 5 4 4 4 4 4 3 3 3 3 3 3 3
6 5 5 9 9 11 11 9 9 10 7 2 2 3 3 3 3 3 2 2 3 3 3 3 3 4 5 4 4 5 4 4 4 4 4 4 4 3 3 3 3 3 3 3
4 3 9 5 2 5 7 7 6 4 2 3 2 1 1 2 3 3 2 2 2 3 2 2 3 4 4 4 4 4 4 4 4 4 4 3 3 3 3 3 3 3 3 3
3 5 7 3 2 2 4 5 3 3 1 1 2 3 2 3 3 3 2 2 2 2 2 3 3 4 5 4 4 4 4 4 4 4 4 3 3 3 3 3 2 2 3 3
3 4 5 2 4 4 1 4 2 1 2 2 3 2 1 3 4 4 4 3 3 3 3 3 3 4 5 4 3 3 3 3 3 3 3 3 3 3 2 2 2 2 2 3
4 4 3 4 5 3 2 3 3 1 2 2 0 1 3 3 4 4 4 4 4 4 4 3 3 4 4 3 2 2 3 3 2 2 3 3 3 2 2 2 2 2 2 3
2 3 3 6 4 2 2 4 4 3 3 4 5 6 5 5 4 4 5 5 4 4 4 3 3 4 4 2 2 2 3 2 2 2 2 2 2 2 2 2 2 2 2 3
1 1 3 4 4 4 4 4 4 5 5 6 6 6 6 5 5 5 4 4 4 4 4 3 4 4 3 2 2 2 2 2 1 1 1 1 2 2 1 2 2 2 2 3
1 2 4 5 5 6 6 6 6 6 6 7 7 7 6 5 5 5 5 5 5 4 4 3 3 3 2 2 2 2 2 1 1 1 1 1 1 1 2 2 2 3 3 3
1 2 3 6 6 6 6 7 7 7 7 6 7 6 5 5 5 4 4 4 4 4 3 3 3 3 2 2 2 2 1 1 1 0 0 0 1 1 2 2 3 4 3 3
2 3 2 4 6 6 6 6 6 6 7 6 5 5 5 4 4 4 4 4 4 4 4 3 3 3 3 2 2 1 1 1 0 0 0 0 1 1 2 3 5 6 7 6
2 4 4 4 6 7 7 7 7 6 6 5 5 5 5 4 4 4 4 4 3 3 3 3 3 3 3 2 2 1 1 1 1 1 1 1 1 1 2 3 4 5 6 7
5 4 5 5 5 6 7 7 7 7 6 5 5 4 4 4 4 3 3 3 3 3 2 2 2 2 2 2 2 1 1 2 2 1 1 1 1 2 2 2 3 3 4 6
6 5 4 4 5 5 6 6 7 6 6 6 5 4 4 4 3 3 3 3 3 3 3 2 2 3 3 2 2 2 1 1 1 1 1 1 2 2 2 3 3 3 3 4
4 5 5 5 5 5 6 6 6 5 5 5 5 4 4 3 3 3 3 3 2 2 3 3 3 3 3 2 2 2 2 3 3 2 2 2 2 2 2 3 3 3 3 3
4 4 4 4 5 5 5 4 4 4 4 4 4 4 4 4 3 3 3 2 2 2 2 2 2 3 3 2 2 2 2 2 4 3 2 2 2 2 3 3 3 4 4 4
3 3 2 2 2 3 4 4 3 3 3 3 3 4 4 3 3 3 3 3 3 3 3 2 2 2 2 3 2 2 2 2 2 2 2 3 3 3 3 3 4 5 4 4
4 4 4 4 3 2 2 3 3 3 3 3 3 3 3 3 3 3 3 3 3 4 4 3 4 3 3 3 3 2 2 3 3 3 3 4 4 3 3 3 4 4 4 4
5 4 4 4 3 3 2 3 3 3 3 2 2 3 4 4 4 3 3 3 2 2 3 4 3 3 3 3 4 2 2 3 3 3 3 3 3 3 4 4 4 4 4 4
5 5 4 4 4 3 3 3 2 3 3 3 2 3 4 4 4 3 3 3 3 3 3 5 3 3 3 4 5 2 3 3 3 3 3 3 3 4 4 4 4 4 5 4
4 4 4 4 4 4 4 3 2 3 3 3 3 3 4 4 4 3 3 3 3 5 4 2 2 4 6 6 3 3 3 3 3 3 3 3 4 4 4 4 4 5 5 5
4 4 4 4 4 4 4 3 3 3 3 3 4 4 4 4 3 3 4 2 2 6 4 3 5 8 9 4 2 3 3 4 3 3 3 3 4 4 4 5 4 5 5 5
4 4 4 4 4 4 4 4 4 3 3 4 3 3 3 3 3 2 2 5 7 7 4 6 9 9 8 3 3 3 3 3 3 3 4 4 4 4 4 4 4 4 4 5
4 4 4 4 4 3 4 4 4 4 3 3 3 3 2 2 3 3 3 4 7 7 4 6 9 9 5 3 3 3 3 3 4 3 3 3 4 4 4 4 4 4 4 4
4 4 4 4 3 3 3 3 3 3 3 4 4 3 3 2 3 3 3 3 5 6 4 3 4 5 3 3 3 3 3 4 4 4 3 4 4 4 4 4 5 4 4 4
4 3 3 3 3 3 2 3 3 4 4 4 4 4 4 3 3 3 4 3 3 3 3 3 3 3 3 3 3 3 3 3 3 3 3 3 3 3 4 4 4 4 4 4
Wind_Direction
269 278 260 246 233 223 221 225 231 253 254 233 217 187 152 136 133 132 131 131 136 143 144 143 138 135 133 134 135 135 138 144 150 146 142 144 150 159 167 169 172 177 180 184
270 271 267 258 241 231 231 231 241 257 268 268 151 118 119 139 147 142 139 141 140 139 137 142 144 139 135 138 139 138 143 148 145 142 143 150 156 161 167 171 172 174 187 189
266 282 289 258 240 228 226 225 225 238 247 184 173 188 195 176 155 142 131 142 144 142 140 140 146 142 140 143 138 141 144 144 145 145 151 161 162 164 177 180 174 181 193 194
262 261 241 244 269 239 231 232 229 236 210 181 181 178 133 127 127 127 122 115 114 119 115 118 125 125 124 127 135 141 144 146 148 150 158 164 164 174 186 181 180 187 197 200
235 247 264 271 302 271 228 249 252 237 245 67 85 68 44 57 78 94 90 91 90 97 109 112 117 123 119 121 126 132 138 143 150 154 160 165 171 181 185 178 186 194 199 202
229 237 250 304 329 324 249 253 321 210 148 122 108 151 196 55 62 73 74 75 73 80 91 96 101 111 114 117 124 138 139 136 144 154 164 175 179 182 181 179 188 197 211 215
243 246 271 348 330 351 155 272 340 22 139 156 241 152 123 90 69 73 76 71 65 73 81 83 86 99 106 111 125 131 125 130 145 159 171 178 174 171 169 175 186 208 226 238
235 247 277 356 8 17 339 351 14 47 70 78 82 92 91 86 77 69 70 69 65 71 68 62 75 94 98 101 104 106 121 132 147 163 171 160 160 164 169 174 191 222 233 251
222 260 3 11 13 358 4 21 31 52 70 83 89 88 83 74 66 64 67 66 65 75 68 57 64 85 98 97 99 105 113 122 140 149 157 161 167 172 181 192 202 225 230 242
5 25 18 23 24 24 31 43 46 56 70 83 87 85 80 72 63 57 59 66 66 67 68 59 55 67 86 86 88 98 107 114 130 136 150 159 183 190 196 210 217 229 234 245
342 1 21 26 23 29 40 47 52 55 61 74 84 80 77 73 65 59 58 61 62 65 66 59 51 49 54 57 74 81 91 94 74 86 187 209 241 242 238 239 231 240 240 237
3 6 18 10 13 28 46 48 54 67 62 55 71 79 72 66 62 62 58 55 53 49 51 47 43 39 38 40 58 72 64 51 33 338 274 249 264 315 312 275 275 270 266 264
14 24 43 37 33 38 48 49 54 59 63 61 58 66 67 62 50 50 51 50 51 46 44 39 34 30 24 22 41 49 23 314 295 286 276 265 258 258 295 312 301 289 279 272
35 43 44 36 40 40 47 51 55 55 52 55 58 59 60 57 45 40 36 34 38 37 33 34 33 17 10 21 29 14 349 312 295 274 267 266 265 264 264 277 297 303 295 283
30 45 53 46 48 47 46 49 52 49 45 43 44 48 48 47 36 25 24 31 36 28 20 26 25 4 7 14 11 350 328 305 295 285 279 274 271 270 269 267 273 283 294 294
26 40 43 43 39 39 39 40 41 35 32 33 33 30 30 32 21 12 13 22 30 13 360 5 356 346 355 357 346 336 321 311 309 299 289 286 282 278 277 275 275 277 278 281
36 30 28 26 22 25 28 29 32 27 22 20 16 12 12 11 6 1 359 3 8 347 340 342 328 332 341 340 330 318 313 310 311 305 293 286 282 280 279 277 276 278 278 277
29 20 17 22 18 16 13 16 18 14 10 2 3 5 1 353 343 335 335 340 345 343 341 330 327 338 337 328 320 309 305 299 293 287 290 291 289 283 283 282 281 281 285 285
29 25 20 18 14 11 358 351 349 348 350 354 355 346 336 331 326 323 332 341 337 325 322 333 341 343 323 315 318 302 299 296 294 291 291 295 298 290 283 281 281 283 286 289
17 15 14 9 6 1 342 336 337 339 340 343 340 333 327 324 324 322 323 313 297 289 305 322 326 313 306 304 312 293 289 287 287 288 288 285 285 287 287 285 285 288 291 291
3 1 359 356 351 347 338 331 331 325 326 330 322 310 307 309 313 313 309 302 305 317 319 321 317 303 304 308 312 299 291 289 287 284 283 283 284 286 289 292 294 295 294 293
347 345 340 337 334 331 329 329 322 314 315 316 313 309 307 307 308 301 280 274 297 319 322 305 300 307 311 312 300 295 291 289 287 285 283 284 286 289 290 293 293 292 290 289
328 325 325 326 323 317 320 319 312 308 307 307 307 304 300 296 295 298 301 304 311 320 320 301 311 316 318 315 297 293 291 289 287 285 284 284 283 284 285 286 287 288 288 290
322 323 321 319 320 318 314 313 316 313 302 297 294 294 296 303 304 293 291 313 319 319 314 311 318 319 322 314 301 296 293 291 288 286 287 286 283 281 281 282 285 288 288 289
315 313 313 318 319 313 311 317 320 318 315 311 310 306 294 281 287 301 304 304 312 318 314 314 319 322 325 310 303 298 294 290 290 292 287 287 285 284 284 286 289 290 288 287
310 308 305 305 305 307 311 315 315 316 319 317 317 317 315 308 300 299 299 299 302 310 310 302 304 311 310 305 303 302 300 303 306 303 295 293 292 293 292 292 292 290 289 289
308 306 307 311 314 313 311 310 307 309 311 309 308 310 312 311 307 305 303 302 303 302 299 298 298 298 301 302 302 302 302 300 296 294 294 294 294 292 292 293 293 292 292 292